Aérodrome :
LOGIN :

S'inscrire | Disclaimer

   EN    FR    IT 

 










Légende :    VFR   VFR Marginal   IFR   IFR Intensif   IFR Très Intensif
Visi : 
Plafond : 
>= 8 km
>= 3000ft
5 à 8 km
1000 à 3000 ft
1500m à 5 km
500 à 1000 ft
800 à 1500m
200 à 500 ft
< 800m
< 200 ft
Symboles :   Orages  Brouillard  Fortes neiges  Fortes précipitations  Vent > 20 kt
SIGMETs :   Divers  Orages  Givrage  Turbulence  Onde Orograph.  Cendres Volcan.






- Altitude de l'aérodrome : 602 ft
- Code IATA : NVS


LFQG - Nevers

DERNIER METAR :
  • 231700Z AUTO 34008KT CAVOK 21/14 Q1018

METARs EXPIRÉS :
  • 231630Z AUTO 33007KT 9999 FEW040 BKN056 BKN066 22/14 Q1018
  • 231600Z AUTO 35005KT 310V040 9999 FEW037 BKN046 22/14 Q1018
  • 231530Z AUTO 01008KT 330V040 9999 BKN034 BKN042 23/15 Q1018
  • 231500Z AUTO 01008KT 9999 FEW030 SCT035 BKN043 21/15 Q1018
  • 231430Z AUTO 33007KT 290V010 9999 FEW031 BKN049 21/14 Q1018

TAF N/A



MET'MAP, la Météo Aéronautique d'un coup d'oeil ! - Copyright ORBIFLY Décembre 2007 - Disclaimer

ORBIFLY MET'MAP TEAM :

Programmation & Développement : Alexandra Zaïnal
Sur une idée originale de : Baudouin d'Aumeries
Assistance à la programmation : Marc-Olivier Méhu
Soutien technique & logistique : Manuel Goepfert

Contact : metmap@orbifly.com




SOURCES & CREDITS :

   NOAA